User: anonymous   Login
Location: Saint-Restitut
(44.3351°N, 4.7915°E)
Time: 05:47:34
(UTC+00:00)
Language:

FENGYUN 1C DEB - Orbit

View from above orbital plane
View from above orbital plane
View from above satellite
View from above satellite

Ground track
Ground track

The orbit data is extracted from the following two-line orbital elements,

1 30257U 99025XS  24051.80936119  .00000232  00000-0  15580-3 0  9990
2 30257  98.7452  63.4014 0059568 167.8770   7.1540 14.09056996879180
Epoch (UTC): 20 February 2024 19:25:28
Eccentricity: 0.0059568
inclination: 98.7452°
perigee height: 819 km
apogee height: 906 km
right ascension of ascending node: 63.4014°
argument of perigee: 167.8770°
revolutions per day: 14.09056996
mean anomaly at epoch: 7.1540°
orbit number at epoch: 87918

The dashed part of the orbit path shows where the satellite is in the earth's shadow,  

DLR